Regional Weather Roundup
Issued by NWS

Home | Current Version | Previous Version | Graphics & Text | Print | Product List | Glossary On
Versions: 1 2 3 4 5 6 7 8 9 10 11 12 13 14 15 16 17 18 19 20 21 22 23 24 25 26 27 28 29 30 31 32 33 34 35 36 37 38 39 40 41 42 43 44 45 46 47 48 49 50
000
ASUS43 KFSD 132010
RWRSD

WEATHER ROUNDUP FOR SOUTH DAKOTA
NATIONAL WEATHER SERVICE SIOUX FALLS SD
200 PM CST WED DEC 13 2017

NOTE: "FAIR" INDICATES FEW OR NO CLOUDS BELOW 12,000 FEET WITH NO
SIGNIFICANT WEATHER AND/OR OBSTRUCTIONS TO VISIBILITY.


SDZ001>005-009-010-012>017-132100-
NORTHWEST AND NORTH CENTRAL SOUTH DAKOTA

CITY           SKY/WX    TMP DP  RH WIND       PRES   REMARKS
BUFFALO          N/A     43  24  47 NW29      29.96F
FAITH            N/A     44  22  41 NW32G41   29.94F
MOBRIDGE       CLOUDY    38  28  67 N20G30    29.90R
$$

SDZ012>016-024>037-041>051-057-063-072>074-132100-
SOUTHWEST AND SOUTH CENTRAL SOUTH DAKOTA

CITY           SKY/WX    TMP DP  RH WIND       PRES   REMARKS
RAPID CTY ARPT CLOUDY    47  23  38 NW29G41   30.00F
PIERRE         SUNNY     46  27  47 NW23G35   29.90F
CUSTER         CLOUDY    41  10  28 NW9G23    29.98F
ELLSWORTH AFB  PTSUNNY   45  24  43 N29G38    29.99R
PHILIP         PTSUNNY   46  27  47 NW20G32   29.96F
PINE RIDGE     CLOUDY    48  21  34 N16G22    30.00F
SPEARFISH      FAIR      43  23  45 NW18G28   30.04S
WINNER         FAIR      49  27  42 N25G37    29.91S
$$

SDZ004>011-016>023-039-040-132100-
NORTHEAST SOUTH DAKOTA

CITY           SKY/WX    TMP DP  RH WIND       PRES   REMARKS
ABERDEEN       CLOUDY    37  28  70 NW20G30   29.85S
WATERTOWN      CLOUDY    31  29  92 NW17G28   29.78S WCI  19
BROOKINGS      CLOUDY    33  28  81 N17G25    29.78R WCI  22
SISSETON         N/A     33  27  78 NW21G30   29.79S WCI  21
$$

SDZ017-020-022-023-036>040-048>070-132100-
SOUTHEAST SOUTH DAKOTA

CITY           SKY/WX    TMP DP  RH WIND       PRES   REMARKS
SIOUX FALLS    CLOUDY    38  30  73 NW18G30   29.79R
HURON          CLOUDY    39  27  62 NW25G36   29.86R
CHAMBERLAIN    SUNNY     46  30  55 NW24G30   29.89F
MITCHELL       CLOUDY    41  29  62 NW32G38   29.87S
YANKTON        CLOUDY    41  28  60 NW24G33   29.84R
$$

ABBREVIATIONS USED IN REMARKS
   TC - TEMPERATURE IN CELSIUS
  WCI - WIND CHILL INDEX
   HX - HEAT INDEX
  VSB - VISIBILITY





USA.gov is the U.S. government's official web portal to all federal, state and local government web resources and services.